Flag for India Weather past 2 weeks in Tarn Taran Sahib, Punjab, India

Now
90 °F

Fog.


Feels Like: 111 °F
Forecast: 82 / 103 °F
Wind: No wind

Location: Amritsar Airport

Current Time: Aug 1, 2014 at 10:09:21 AM

Latest Report: Aug 1, 2014 at 9:30 AM


Visibility: 2 mi

Pressure: 29.62 "Hg

Humidity: 79%

Dew point: 82 °F

Location of Tarn Taran SahibLocation

Historic Weather in Tarn Taran Sahib — Graph

°F

Tarn Taran Sahib temperature yesterday

Maximum temperature yesterday: 95 °F (at 2:00 PM)
Minimum temperature yesterday: 79 °F (at 11:00 AM)
Average temperature yesterday: 88 °F

Past Weeks' High & Low Weather Summary

 TemperatureHumidityPressure
High97 °F (Jul 22, 1:30 PM)100% (Jul 17, 10:30 PM)29.68 "Hg (Jul 17, 10:30 PM)
Low70 °F (Jul 26, 6:00 PM)56% (Jul 20, 3:30 PM)29.36 "Hg (Jul 18, 5:00 PM)
Average86 °F84%29.53 "Hg
* Reported Jul 17 8:30 AM — Aug 1 8:30 AM, Tarn Taran Sahib, Weather by CustomWeather, © 2014

Note: Actual official high and low records may vary slightly from our data, if they occured in-between our weather recording intervals... More about our weather records

Advertising

Tarn Taran Sahib weather history for previous 24 hours

 ConditionsComfort  
Time TempWeatherWind HumidityBarometerVisibility
8:30 AM
Aug 1
86 °FFog.2 mph94%29.59 "Hg1 mi
7:30 AM84 °FFog.No wind100%29.59 "Hg1 mi
7:00 AM84 °FFog.No wind100%29.56 "Hg1 mi
6:30 AM82 °FFog.No wind100%29.56 "Hg1 mi
6:00 AM82 °FFog.No wind100%29.56 "Hg1 mi
5:30 AM82 °FFog.No wind100%29.56 "Hg1 mi
5:00 AM82 °FFog.No wind100%29.56 "Hg1 mi
4:00 AM82 °FFog.No wind100%29.56 "Hg2 mi
3:30 AM82 °FFog.No wind100%29.56 "Hg2 mi
3:00 AM82 °FFog.No wind100%29.56 "Hg2 mi
2:30 AM84 °FFog.No wind94%29.56 "Hg2 mi
2:00 AM84 °FFog.No wind94%29.56 "Hg2 mi
1:30 AM84 °FFog.No wind94%29.56 "Hg2 mi
1:00 AM84 °FFog.No wind89%29.56 "Hg2 mi
12:30 AM84 °FFog.No wind89%29.56 "Hg2 mi
12:00 AM86 °FFog.1 mph89%29.56 "Hg2 mi
11:30 PM
Jul 31
86 °FFog.6 mph89%29.56 "Hg2 mi
11:00 PM86 °FFog.No wind94%29.56 "Hg2 mi
10:30 PM88 °FFog.No wind84%29.56 "Hg2 mi
10:00 PM88 °FFog.No wind84%29.56 "Hg2 mi
9:30 PM88 °FFog.No wind84%29.56 "Hg2 mi
9:00 PM88 °FFog.No wind89%29.53 "Hg2 mi
8:30 PM88 °FFog.No wind89%29.53 "Hg2 mi
7:30 PM90 °FFog.1 mph79%29.50 "Hg3 mi
6:30 PM91 °FScattered clouds.1 mph75%29.47 "Hg4 mi
6:00 PM91 °FScattered clouds.5 mph71%29.50 "Hg4 mi
5:30 PM93 °FScattered clouds.6 mph71%29.50 "Hg4 mi
5:00 PM93 °FScattered clouds.7 mph75%29.50 "Hg4 mi
4:30 PM93 °FScattered clouds.7 mph75%29.50 "Hg4 mi
4:00 PM95 °FScattered clouds.3 mph60%29.50 "Hg4 mi
3:30 PM95 °FScattered clouds.3 mph56%29.53 "Hg4 mi
3:00 PM95 °FScattered clouds.2 mph60%29.56 "Hg3 mi
2:30 PM95 °FScattered clouds.No wind60%29.56 "Hg3 mi
2:00 PM95 °FScattered clouds.No wind63%29.56 "Hg2 mi
1:30 PM93 °FScattered clouds.No wind63%29.56 "Hg2 mi
1:00 PM91 °FScattered clouds.No wind71%29.59 "Hg2 mi
12:30 PM86 °FFog.No wind84%29.59 "Hg2 mi
12:00 PM81 °FFog.No wind100%29.62 "Hg2 mi
11:00 AM79 °FThunderstorms. Mostly cloudy.17 mph100%29.65 "Hg1 mi
10:30 AM90 °FScattered clouds.5 mph79%29.62 "Hg3 mi
10:00 AM93 °FScattered clouds.No wind67%29.62 "Hg3 mi
Weather by CustomWeather, © 2014

See weather overviewHow to use our weather pages